This is the latest recevied weather packets stored in our database for station/object KC9MWQ-13. If no packets are shown the sender has not sent any weather packets the latest 10 day(s).
| Time | Temp. | Humidity | Pressure | Rain* | Wind** | Luminosity | Snow |
|---|---|---|---|---|---|---|---|
| 1777821121 | 14.44° C | 58% | 1017.9 hPa | 0 mm | - | 741 W/m² | - |
| 1777820818 | 13.89° C | 54% | 1017.8 hPa | 0 mm | - | 837 W/m² | - |
| 1777820514 | 14.44° C | 56% | 1017.9 hPa | 0 mm | - | 740 W/m² | - |
| 1777820211 | 13.89° C | 55% | 1017.9 hPa | 0 mm | - | 731 W/m² | - |
| 1777819908 | 13.89° C | 58% | 1017.8 hPa | 0 mm | - | 677 W/m² | - |
| 1777819605 | 13.33° C | 58% | 1018 hPa | 0 mm | - | 700 W/m² | - |
| 1777819303 | 13.33° C | 56% | 1017.9 hPa | 0 mm | - | 724 W/m² | - |
| 1777818999 | 13.33° C | 58% | 1017.8 hPa | 0 mm | - | 683 W/m² | - |
| 1777818697 | 13.33° C | 58% | 1018.2 hPa | 0 mm | - | 724 W/m² | - |
| 1777818394 | 13.33° C | 57% | 1018 hPa | 0 mm | - | 691 W/m² | - |
| 1777818090 | 13.33° C | 59% | 1018 hPa | 0 mm | - | 551 W/m² | - |
| 1777817787 | 13.33° C | 60% | 1018.1 hPa | 0 mm | - | 590 W/m² | - |
| 1777817485 | 12.78° C | 60% | 1018 hPa | 0 mm | - | 603 W/m² | - |
| 1777817180 | 12.78° C | 60% | 1018.2 hPa | 0 mm | - | 602 W/m² | - |
| 1777816878 | 12.22° C | 61% | 1018.1 hPa | 0 mm | - | 592 W/m² | - |
| 1777816575 | 12.22° C | 61% | 1018.2 hPa | 0 mm | - | 580 W/m² | - |
| 1777816272 | 12.22° C | 61% | 1018.3 hPa | 0 mm | - | 548 W/m² | - |
| 1777815969 | 12.22° C | 63% | 1018.2 hPa | 0 mm | - | 524 W/m² | - |
| 1777815667 | 11.67° C | 64% | 1018.3 hPa | 0 mm | - | 494 W/m² | - |
| 1777815364 | 11.11° C | 65% | 1018.7 hPa | 0 mm | - | 448 W/m² | - |
| 1777815060 | 11.11° C | 66% | 1018.4 hPa | 0 mm | - | 406 W/m² | - |
| 1777814757 | 10.56° C | 66% | 1018.4 hPa | 0 mm | - | 306 W/m² | - |
| 1777814454 | 10.56° C | 69% | 1018.3 hPa | 0 mm | - | 376 W/m² | - |
| 1777814151 | 10.56° C | 68% | 1018.3 hPa | 0 mm | - | 353 W/m² | - |
| 1777813848 | 10° C | 68% | 1018.2 hPa | 0 mm | - | 337 W/m² | - |
* Rain latest hour (hover to see other rain measurements)
** Current wind speed in m/s (hover to see current wind gust speed)